"Period start","avg(HW err(1)/warn(2) (#))","avg(Visibility (m))","avg(Weather code (#))","avg(Precip intensity (mm/h))","min(HW err(1)/warn(2) (#))","max(HW err(1)/warn(2) (#))","std(HW err(1)/warn(2) (#))","med(HW err(1)/warn(2) (#))","min(Visibility (m))","max(Visibility (m))","std(Visibility (m))","med(Visibility (m))","min(Weather code (#))","max(Weather code (#))","std(Weather code (#))","med(Weather code (#))","min(Precip intensity (mm/h))","max(Precip intensity (mm/h))","std(Precip intensity (mm/h))","med(Precip intensity (mm/h))"
2017-03-15 00:00:00,2,47979,0,0.00,2,2,0,2,42656,50000,2884,50000,0,0,0,0,0.00,0.00,0.00,0.00
2017-03-15 00:10:00,2,49234,0,0.00,2,2,0,2,45810,50000,1466,50000,0,0,0,0,0.00,0.00,0.00,0.00
2017-03-15 00:20:00,2,48561,0,0.00,2,2,0,2,40983,50000,2833,50000,0,0,0,0,0.00,0.00,0.00,0.00
2017-03-15 00:30:00,2,49213,0,0.00,2,2,0,2,43317,50000,1990,50000,0,0,0,0,0.00,0.00,0.00,0.00
2017-03-15 00:40:00,2,47257,0,0.00,2,2,0,2,39026,50000,3559,48753,0,0,0,0,0.00,0.00,0.00,0.00
2017-03-15 00:50:00,2,47003,0,0.00,2,2,0,2,36510,50000,4635,49885,0,0,0,0,0.00,0.00,0.00,0.00
2017-03-15 01:00:00,2,44288,0,0.00,2,2,0,2,37156,50000,4475,45438,0,0,0,0,0.00,0.00,0.00,0.00
2017-03-15 01:10:00,2,49123,0,0.00,2,2,0,2,45905,50000,1581,50000,0,0,0,0,0.00,0.00,0.00,0.00
2017-03-15 01:20:00,2,49260,0,0.00,2,2,0,2,46418,50000,1241,50000,0,0,0,0,0.00,0.00,0.00,0.00
2017-03-15 01:30:00,2,47873,0,0.00,2,2,0,2,43647,50000,2305,48547,0,0,0,0,0.00,0.00,0.00,0.00
2017-03-15 01:40:00,2,49605,0,0.00,2,2,0,2,46051,50000,1185,50000,0,0,0,0,0.00,0.00,0.00,0.00
2017-03-15 01:50:00,2,48681,0,0.00,2,2,0,2,45765,50000,1539,49144,0,0,0,0,0.00,0.00,0.00,0.00
2017-03-15 02:00:00,2,46211,0,0.00,2,2,0,2,39051,50000,4264,48522,0,0,0,0,0.00,0.00,0.00,0.00
2017-03-15 02:10:00,2,24386,0,0.00,2,2,0,2,16047,31507,5290,23471,0,0,0,0,0.00,0.00,0.00,0.00
2017-03-15 02:20:00,2,21120,0,0.00,2,2,0,2,14072,28177,3849,20146,0,0,0,0,0.00,0.00,0.00,0.00
2017-03-15 02:30:00,2,30154,0,0.00,2,2,0,2,19864,43222,8019,32195,0,0,0,0,0.00,0.00,0.00,0.00
2017-03-15 02:40:00,2,26292,0,0.00,2,2,0,2,19794,32508,4152,27338,0,0,0,0,0.00,0.00,0.00,0.00
2017-03-15 02:50:00,2,23517,0,0.00,2,2,0,2,18085,30912,4409,22810,0,0,0,0,0.00,0.00,0.00,0.00
2017-03-15 03:00:00,2,34860,0,0.00,2,2,0,2,23341,50000,8309,34957,0,0,0,0,0.00,0.00,0.00,0.00
2017-03-15 03:10:00,2,39814,0,0.00,2,2,0,2,33292,48985,4326,38752,0,0,0,0,0.00,0.00,0.00,0.00
2017-03-15 03:20:00,2,41487,0,0.00,2,2,0,2,24973,50000,8528,45288,0,0,0,0,0.00,0.00,0.00,0.00
2017-03-15 03:30:00,2,43983,0,0.00,2,2,0,2,38403,50000,4538,42409,0,0,0,0,0.00,0.00,0.00,0.00
2017-03-15 03:40:00,2,48702,0,0.00,2,2,0,2,45305,50000,1702,50000,0,0,0,0,0.00,0.00,0.00,0.00
2017-03-15 03:50:00,2,45940,0,0.00,2,2,0,2,39930,50000,3204,47087,0,0,0,0,0.00,0.00,0.00,0.00
2017-03-15 04:00:00,2,46436,0,0.00,2,2,0,2,42015,50000,3494,47043,0,0,0,0,0.00,0.00,0.00,0.00
2017-03-15 04:10:00,2,46140,0,0.00,2,2,0,2,36472,50000,4378,48502,0,0,0,0,0.00,0.00,0.00,0.00
2017-03-15 04:20:00,2,46992,0,0.00,2,2,0,2,36062,50000,4704,49988,0,0,0,0,0.00,0.00,0.00,0.00
2017-03-15 04:30:00,2,47268,0,0.00,2,2,0,2,43349,50000,2661,48532,0,0,0,0,0.00,0.00,0.00,0.00
2017-03-15 04:40:00,2,48352,0,0.00,2,2,0,2,41696,50000,2545,50000,0,0,0,0,0.00,0.00,0.00,0.00
2017-03-15 04:50:00,2,44149,0,0.00,2,2,0,2,34900,49045,4389,45763,0,0,0,0,0.00,0.00,0.00,0.00
2017-03-15 05:00:00,2,44999,0,0.00,2,2,0,2,38721,50000,4001,44544,0,0,0,0,0.00,0.00,0.00,0.00
2017-03-15 05:10:00,2,48538,0,0.00,2,2,0,2,41231,50000,2755,50000,0,0,0,0,0.00,0.00,0.00,0.00
2017-03-15 05:20:00,2,46155,0,0.00,2,2,0,2,38362,50000,3364,45964,0,0,0,0,0.00,0.00,0.00,0.00
2017-03-15 05:30:00,2,49439,0,0.00,2,2,0,2,44386,50000,1684,50000,0,0,0,0,0.00,0.00,0.00,0.00
2017-03-15 05:40:00,2,49259,0,0.00,2,2,0,2,46501,50000,1130,50000,0,0,0,0,0.00,0.00,0.00,0.00
2017-03-15 05:50:00,2,49885,0,0.00,2,2,0,2,49538,50000,186,50000,0,0,0,0,0.00,0.00,0.00,0.00
2017-03-15 06:00:00,2,49063,0,0.00,2,2,0,2,46247,50000,1372,50000,0,0,0,0,0.00,0.00,0.00,0.00
2017-03-15 06:10:00,2,49923,0,0.00,2,2,0,2,49233,50000,230,50000,0,0,0,0,0.00,0.00,0.00,0.00
2017-03-15 06:20:00,2,49886,0,0.00,2,2,0,2,48864,50000,341,50000,0,0,0,0,0.00,0.00,0.00,0.00
2017-03-15 06:30:00,2,49240,0,0.00,2,2,0,2,44864,50000,1569,50000,0,0,0,0,0.00,0.00,0.00,0.00
2017-03-15 06:40:00,2,49572,0,0.00,2,2,0,2,47070,50000,876,50000,0,0,0,0,0.00,0.00,0.00,0.00
2017-03-15 06:50:00,2,49840,0,0.00,2,2,0,2,48401,50000,480,50000,0,0,0,0,0.00,0.00,0.00,0.00
2017-03-15 07:00:00,2,49824,0,0.00,2,2,0,2,48414,50000,473,50000,0,0,0,0,0.00,0.00,0.00,0.00
2017-03-15 07:10:00,2,48512,0,0.00,2,2,0,2,44493,50000,2040,50000,0,0,0,0,0.00,0.00,0.00,0.00
2017-03-15 07:20:00,2,48905,0,0.00,2,2,0,2,43041,50000,2288,50000,0,0,0,0,0.00,0.00,0.00,0.00
2017-03-15 07:30:00,2,49722,0,0.00,2,2,0,2,47532,50000,736,50000,0,0,0,0,0.00,0.00,0.00,0.00
2017-03-15 07:40:00,2,49626,0,0.00,2,2,0,2,46431,50000,1066,50000,0,0,0,0,0.00,0.00,0.00,0.00
2017-03-15 07:50:00,2,49974,0,0.00,2,2,0,2,49739,50000,78,50000,0,0,0,0,0.00,0.00,0.00,0.00
2017-03-15 08:00:00,2,50000,0,0.00,2,2,0,2,50000,50000,0,50000,0,0,0,0,0.00,0.00,0.00,0.00
2017-03-15 08:10:00,2,49721,0,0.00,2,2,0,2,47213,50000,836,50000,0,0,0,0,0.00,0.00,0.00,0.00
2017-03-15 08:20:00,2,50000,0,0.00,2,2,0,2,50000,50000,0,50000,0,0,0,0,0.00,0.00,0.00,0.00
2017-03-15 08:30:00,2,49958,0,0.00,2,2,0,2,49584,50000,125,50000,0,0,0,0,0.00,0.00,0.00,0.00
2017-03-15 08:40:00,2,50000,0,0.00,2,2,0,2,50000,50000,0,50000,0,0,0,0,0.00,0.00,0.00,0.00
2017-03-15 08:50:00,2,50000,0,0.00,2,2,0,2,50000,50000,0,50000,0,0,0,0,0.00,0.00,0.00,0.00
2017-03-15 09:00:00,2,49788,0,0.00,2,2,0,2,48201,50000,538,50000,0,0,0,0,0.00,0.00,0.00,0.00
2017-03-15 09:10:00,2,48870,0,0.00,2,2,0,2,41524,50000,2589,50000,0,0,0,0,0.00,0.00,0.00,0.00
2017-03-15 09:20:00,2,50000,0,0.00,2,2,0,2,50000,50000,0,50000,0,0,0,0,0.00,0.00,0.00,0.00
2017-03-15 09:30:00,2,50000,0,0.00,2,2,0,2,50000,50000,0,50000,0,0,0,0,0.00,0.00,0.00,0.00
2017-03-15 09:40:00,2,50000,0,0.00,2,2,0,2,50000,50000,0,50000,0,0,0,0,0.00,0.00,0.00,0.00
2017-03-15 09:50:00,2,50000,0,0.00,2,2,0,2,50000,50000,0,50000,0,0,0,0,0.00,0.00,0.00,0.00
2017-03-15 10:00:00,2,50000,0,0.00,2,2,0,2,50000,50000,0,50000,0,0,0,0,0.00,0.00,0.00,0.00
2017-03-15 10:10:00,2,50000,0,0.00,2,2,0,2,50000,50000,0,50000,0,0,0,0,0.00,0.00,0.00,0.00
2017-03-15 10:20:00,2,50000,0,0.00,2,2,0,2,50000,50000,0,50000,0,0,0,0,0.00,0.00,0.00,0.00
2017-03-15 10:30:00,2,50000,0,0.00,2,2,0,2,50000,50000,0,50000,0,0,0,0,0.00,0.00,0.00,0.00
2017-03-15 10:40:00,2,49200,0,0.00,2,2,0,2,44839,50000,1682,50000,0,0,0,0,0.00,0.00,0.00,0.00
2017-03-15 10:50:00,2,45294,30,0.00,2,2,0,2,38674,49996,4136,46524,0,78,37,0,0.00,0.00,0.00,0.00
2017-03-15 11:00:00,2,34716,78,0.00,2,2,0,2,27370,44530,4678,34446,78,78,0,78,0.00,0.00,0.00,0.00
2017-03-15 11:10:00,2,49700,78,0.00,2,2,0,2,48410,50000,517,50000,78,78,0,78,0.00,0.00,0.00,0.00
2017-03-15 11:20:00,2,48686,16,0.00,2,2,0,2,45016,50000,1851,49824,0,78,31,0,0.00,0.00,0.00,0.00
2017-03-15 11:30:00,2,20566,68,0.08,2,2,0,2,11000,46060,12928,14862,0,78,23,77,0.00,0.20,0.06,0.08
2017-03-15 11:40:00,2,14282,76,0.04,2,2,0,2,10764,19058,2211,13767,71,78,3,77,0.00,0.05,0.02,0.05
2017-03-15 11:50:00,2,30959,77,0.04,2,2,0,2,17960,47934,9249,30735,71,78,2,78,0.00,0.15,0.06,0.00
2017-03-15 12:00:00,2,35314,21,0.00,2,2,0,2,22501,45857,6955,35998,0,71,33,0,0.00,0.00,0.00,0.00
2017-03-15 12:10:00,2,38963,0,0.00,2,2,0,2,28413,48278,6668,39090,0,0,0,0,0.00,0.00,0.00,0.00
2017-03-15 12:20:00,2,47925,0,0.00,2,2,0,2,43192,50000,2323,48916,0,0,0,0,0.00,0.00,0.00,0.00
2017-03-15 12:30:00,2,50000,0,0.00,2,2,0,2,50000,50000,0,50000,0,0,0,0,0.00,0.00,0.00,0.00
2017-03-15 12:40:00,2,50000,0,0.00,2,2,0,2,50000,50000,0,50000,0,0,0,0,0.00,0.00,0.00,0.00
2017-03-15 12:50:00,2,50000,0,0.00,2,2,0,2,50000,50000,0,50000,0,0,0,0,0.00,0.00,0.00,0.00
2017-03-15 13:00:00,2,50000,0,0.00,2,2,0,2,50000,50000,0,50000,0,0,0,0,0.00,0.00,0.00,0.00
2017-03-15 13:10:00,2,50000,0,0.00,2,2,0,2,50000,50000,0,50000,0,0,0,0,0.00,0.00,0.00,0.00
2017-03-15 13:20:00,2,50000,0,0.00,2,2,0,2,50000,50000,0,50000,0,0,0,0,0.00,0.00,0.00,0.00
2017-03-15 13:30:00,2,49889,0,0.00,2,2,0,2,49173,50000,253,50000,0,0,0,0,0.00,0.00,0.00,0.00
2017-03-15 13:40:00,2,50000,0,0.00,2,2,0,2,50000,50000,0,50000,0,0,0,0,0.00,0.00,0.00,0.00
2017-03-15 13:50:00,2,50000,0,0.00,2,2,0,2,50000,50000,0,50000,0,0,0,0,0.00,0.00,0.00,0.00
2017-03-15 14:00:00,2,49047,0,0.00,2,2,0,2,43590,50000,1921,50000,0,0,0,0,0.00,0.00,0.00,0.00
2017-03-15 14:10:00,2,44830,0,0.00,2,2,0,2,32464,50000,6671,49668,0,0,0,0,0.00,0.00,0.00,0.00
2017-03-15 14:20:00,2,50000,0,0.00,2,2,0,2,50000,50000,0,50000,0,0,0,0,0.00,0.00,0.00,0.00
2017-03-15 14:30:00,2,45877,0,0.00,2,2,0,2,33274,50000,5653,49120,0,0,0,0,0.00,0.00,0.00,0.00
2017-03-15 14:40:00,2,49716,0,0.00,2,2,0,2,47179,50000,846,50000,0,0,0,0,0.00,0.00,0.00,0.00
2017-03-15 14:50:00,2,50000,0,0.00,2,2,0,2,50000,50000,0,50000,0,0,0,0,0.00,0.00,0.00,0.00
2017-03-15 15:00:00,2,50000,0,0.00,2,2,0,2,50000,50000,0,50000,0,0,0,0,0.00,0.00,0.00,0.00
2017-03-15 15:10:00,2,50000,0,0.00,2,2,0,2,50000,50000,0,50000,0,0,0,0,0.00,0.00,0.00,0.00
2017-03-15 15:20:00,2,49375,0,0.00,2,2,0,2,46906,50000,1071,49996,0,0,0,0,0.00,0.00,0.00,0.00
2017-03-15 15:30:00,2,49971,0,0.00,2,2,0,2,49706,50000,88,50000,0,0,0,0,0.00,0.00,0.00,0.00
2017-03-15 15:40:00,2,50000,0,0.00,2,2,0,2,50000,50000,0,50000,0,0,0,0,0.00,0.00,0.00,0.00
2017-03-15 15:50:00,2,50000,0,0.00,2,2,0,2,50000,50000,0,50000,0,0,0,0,0.00,0.00,0.00,0.00
2017-03-15 16:00:00,2,49971,0,0.00,2,2,0,2,49714,50000,86,50000,0,0,0,0,0.00,0.00,0.00,0.00
2017-03-15 16:10:00,2,50000,0,0.00,2,2,0,2,50000,50000,0,50000,0,0,0,0,0.00,0.00,0.00,0.00
2017-03-15 16:20:00,2,50000,0,0.00,2,2,0,2,50000,50000,0,50000,0,0,0,0,0.00,0.00,0.00,0.00
2017-03-15 16:30:00,2,49947,0,0.00,2,2,0,2,49467,50000,160,50000,0,0,0,0,0.00,0.00,0.00,0.00
2017-03-15 16:40:00,2,50000,0,0.00,2,2,0,2,50000,50000,0,50000,0,0,0,0,0.00,0.00,0.00,0.00
2017-03-15 16:50:00,2,50000,0,0.00,2,2,0,2,50000,50000,0,50000,0,0,0,0,0.00,0.00,0.00,0.00
2017-03-15 17:00:00,2,50000,0,0.00,2,2,0,2,50000,50000,0,50000,0,0,0,0,0.00,0.00,0.00,0.00
2017-03-15 17:10:00,2,50000,0,0.00,2,2,0,2,50000,50000,0,50000,0,0,0,0,0.00,0.00,0.00,0.00
2017-03-15 17:20:00,2,50000,0,0.00,2,2,0,2,50000,50000,0,50000,0,0,0,0,0.00,0.00,0.00,0.00
2017-03-15 17:30:00,2,50000,0,0.00,2,2,0,2,50000,50000,0,50000,0,0,0,0,0.00,0.00,0.00,0.00
2017-03-15 17:40:00,2,50000,0,0.00,2,2,0,2,50000,50000,0,50000,0,0,0,0,0.00,0.00,0.00,0.00
2017-03-15 17:50:00,2,50000,0,0.00,2,2,0,2,50000,50000,0,50000,0,0,0,0,0.00,0.00,0.00,0.00
2017-03-15 18:00:00,2,50000,0,0.00,2,2,0,2,50000,50000,0,50000,0,0,0,0,0.00,0.00,0.00,0.00
2017-03-15 18:10:00,2,50000,0,0.00,2,2,0,2,50000,50000,0,50000,0,0,0,0,0.00,0.00,0.00,0.00
2017-03-15 18:20:00,2,50000,0,0.00,2,2,0,2,50000,50000,0,50000,0,0,0,0,0.00,0.00,0.00,0.00
2017-03-15 18:30:00,2,50000,0,0.00,2,2,0,2,50000,50000,0,50000,0,0,0,0,0.00,0.00,0.00,0.00
2017-03-15 18:40:00,2,50000,0,0.00,2,2,0,2,50000,50000,0,50000,0,0,0,0,0.00,0.00,0.00,0.00
2017-03-15 18:50:00,2,50000,0,0.00,2,2,0,2,50000,50000,0,50000,0,0,0,0,0.00,0.00,0.00,0.00
2017-03-15 19:00:00,2,50000,0,0.00,2,2,0,2,50000,50000,0,50000,0,0,0,0,0.00,0.00,0.00,0.00
2017-03-15 19:10:00,2,50000,0,0.00,2,2,0,2,50000,50000,0,50000,0,0,0,0,0.00,0.00,0.00,0.00
2017-03-15 19:20:00,2,50000,0,0.00,2,2,0,2,50000,50000,0,50000,0,0,0,0,0.00,0.00,0.00,0.00
2017-03-15 19:30:00,2,50000,0,0.00,2,2,0,2,50000,50000,0,50000,0,0,0,0,0.00,0.00,0.00,0.00
2017-03-15 19:40:00,2,50000,0,0.00,2,2,0,2,50000,50000,0,50000,0,0,0,0,0.00,0.00,0.00,0.00
2017-03-15 19:50:00,2,50000,0,0.00,2,2,0,2,50000,50000,0,50000,0,0,0,0,0.00,0.00,0.00,0.00
2017-03-15 20:00:00,2,50000,0,0.00,2,2,0,2,50000,50000,0,50000,0,0,0,0,0.00,0.00,0.00,0.00
2017-03-15 20:10:00,2,50000,0,0.00,2,2,0,2,50000,50000,0,50000,0,0,0,0,0.00,0.00,0.00,0.00
2017-03-15 20:20:00,2,50000,0,0.00,2,2,0,2,50000,50000,0,50000,0,0,0,0,0.00,0.00,0.00,0.00
2017-03-15 20:30:00,2,50000,0,0.00,2,2,0,2,50000,50000,0,50000,0,0,0,0,0.00,0.00,0.00,0.00
2017-03-15 20:40:00,2,50000,0,0.00,2,2,0,2,50000,50000,0,50000,0,0,0,0,0.00,0.00,0.00,0.00
2017-03-15 20:50:00,2,50000,0,0.00,2,2,0,2,50000,50000,0,50000,0,0,0,0,0.00,0.00,0.00,0.00
2017-03-15 21:00:00,2,49924,0,0.00,2,2,0,2,49240,50000,228,50000,0,0,0,0,0.00,0.00,0.00,0.00
2017-03-15 21:10:00,2,49899,0,0.00,2,2,0,2,49416,50000,205,50000,0,0,0,0,0.00,0.00,0.00,0.00
2017-03-15 21:20:00,2,50000,0,0.00,2,2,0,2,50000,50000,0,50000,0,0,0,0,0.00,0.00,0.00,0.00
2017-03-15 21:30:00,2,50000,0,0.00,2,2,0,2,50000,50000,0,50000,0,0,0,0,0.00,0.00,0.00,0.00
2017-03-15 21:40:00,2,50000,0,0.00,2,2,0,2,50000,50000,0,50000,0,0,0,0,0.00,0.00,0.00,0.00
2017-03-15 21:50:00,2,50000,0,0.00,2,2,0,2,50000,50000,0,50000,0,0,0,0,0.00,0.00,0.00,0.00
2017-03-15 22:00:00,2,50000,0,0.00,2,2,0,2,50000,50000,0,50000,0,0,0,0,0.00,0.00,0.00,0.00
2017-03-15 22:10:00,2,36237,36,0.02,2,2,0,2,17384,50000,13624,39887,0,71,36,36,0.00,0.10,0.03,0.00
2017-03-15 22:20:00,2,49920,0,0.00,2,2,0,2,49198,50000,241,50000,0,0,0,0,0.00,0.00,0.00,0.00
2017-03-15 22:30:00,2,50000,0,0.00,2,2,0,2,50000,50000,0,50000,0,0,0,0,0.00,0.00,0.00,0.00
2017-03-15 22:40:00,2,50000,0,0.00,2,2,0,2,50000,50000,0,50000,0,0,0,0,0.00,0.00,0.00,0.00
2017-03-15 22:50:00,2,49784,0,0.00,2,2,0,2,47844,50000,647,50000,0,0,0,0,0.00,0.00,0.00,0.00
2017-03-15 23:00:00,2,49721,0,0.00,2,2,0,2,47938,50000,632,50000,0,0,0,0,0.00,0.00,0.00,0.00
2017-03-15 23:10:00,2,49488,0,0.00,2,2,0,2,47136,50000,1033,50000,0,0,0,0,0.00,0.00,0.00,0.00
2017-03-15 23:20:00,2,49894,0,0.00,2,2,0,2,48944,50000,317,50000,0,0,0,0,0.00,0.00,0.00,0.00
2017-03-15 23:30:00,2,49697,0,0.00,2,2,0,2,48433,50000,606,50000,0,0,0,0,0.00,0.00,0.00,0.00
2017-03-15 23:40:00,2,49230,0,0.00,2,2,0,2,46719,50000,1102,50000,0,0,0,0,0.00,0.00,0.00,0.00
2017-03-15 23:50:00,2,47302,0,0.00,2,2,0,2,41166,50000,3308,49732,0,0,0,0,0.00,0.00,0.00,0.00
